Location: Unspecified
(0.0000°N, 0.0000°E)
Time: 01:31:20
(UTC+00:00)

CUTE 1.7 + AOD 2 - Visible Passes

Search period start: 15 December 2025 00:00
Search period end: 25 December 2025 00:00
Orbit: 540 x 550 km, 97.8° (Epoch: 14 December)

Date Brightness Start Highest point End Pass type
(mag) Time Alt. Az. Time Alt. Az. Time Alt. Az.
22 Dec ? 04:03:06 10° SSW 04:03:06 10° SSW 04:03:09 10° SSW visible
23 Dec ? 03:57:11 11° S 03:57:11 11° S 03:57:17 10° S visible
24 Dec ? 03:51:15 11° S 03:51:15 11° S 03:51:21 10° S visible
